Lawrence, KS

12:48 PM CDT on August 18, 2017 (GMT -0500)
Lawrence Municipal

Weather History for KLWC - August, 2013

Change the Weather History Date:

Monday, August 19, 2013

  Actual Average Record
Temperature  
Mean Temperature 73 °F 77 °F  
Max Temperature 87 °F 89 °F 104 °F (2003)
Min Temperature 58 °F 65 °F 53 °F (2012)
Degree Days  
Heating Degree Days 0 0  
Month to date heating degree days 0 0  
Since 1 June heating degree days 13 9  
Since 1 July heating degree days 0 1  
Cooling Degree Days 8 12  
Month to date cooling degree days 177 254  
Year to date cooling degree days 1020 1062  
Since 1 June cooling degree days 893 943  
Growing Degree Days 23 (Base 50)    
Moisture  
Dew Point 62 °F    
Average Humidity 69    
Maximum Humidity 93    
Minimum Humidity 45    
Precipitation  
Precipitation 0.00 in 0.17 in 1.36 in (2005)
Month to date precipitation 3.25 2.45  
Year to date precipitation 20.28 25.98  
Sea Level Pressure  
Sea Level Pressure 30.06 in    
Wind  
Wind Speed 6 mph (SE)    
Max Wind Speed 15 mph    
Max Gust Speed 20 mph    
Visibility 7 miles    
Events      
T = Trace of Precipitation, MM = Missing Value Source: NWS Daily Summary

Daily Weather History Graph

Daily Weather History Graph

Search for Another Location

Airport or City:

Trip Planner

Search our weather history database for the weather conditions in past years. The results will help you decide how hot, cold, wet, or windy it might be!

Date:

Astronomy

Aug. 19, 2013 Rise Set
Actual Time 6:38 AM CDT 8:09 PM CDT
Civil Twilight 6:09 AM CDT 8:38 PM CDT
Nautical Twilight 5:35 AM CDT 9:11 PM CDT
Astronomical Twilight 5:00 AM CDT 9:47 PM CDT
Moon 7:01 PM CDT (8/19) 4:58 AM CDT (8/19)
Length of Visible Light 14h 28m
Length of Day
13h 31m
Waxing Gibbous, 97% of the Moon is Illuminated
Aug 19
Waxing Gibbous
Aug 20
Full
Aug 28
Last Quarter
Sep 5
New
Sep 12
First Quarter

Hourly Weather History & Observations

Time (CDT) Temp. Heat Index Dew Point Humidity Pressure Visibility Wind Dir Wind Speed Gust Speed Precip Events Conditions
12:52 AM 62.1 °F - 59.0 °F 90% 30.10 in 5.0 mi Calm Calm - N/A   Clear
1:52 AM 62.1 °F - 59.0 °F 90% 30.09 in 5.0 mi Calm Calm - N/A   Clear
2:52 AM 60.1 °F - 57.0 °F 90% 30.07 in 5.0 mi Calm Calm - N/A   Clear
3:52 AM 61.0 °F - 57.9 °F 90% 30.06 in 3.0 mi Calm Calm - N/A   Clear
4:52 AM 59.0 °F - 57.9 °F 96% 30.06 in 2.5 mi East 3.5 mph - N/A   Clear
5:11 AM 60.8 °F - 57.2 °F 88% 30.09 in 3.0 mi ENE 3.5 mph - N/A   Clear
5:52 AM 59.0 °F - 55.9 °F 90% 30.07 in 4.0 mi East 3.5 mph - N/A   Clear
6:52 AM 60.1 °F - 57.9 °F 93% 30.09 in 3.0 mi East 3.5 mph - N/A   Mostly Cloudy
7:07 AM 62.6 °F - 59.0 °F 88% 30.11 in 2.5 mi East 3.5 mph - N/A   Overcast
7:19 AM 62.6 °F - 60.8 °F 94% 30.11 in 3.0 mi ESE 3.5 mph - N/A   Mostly Cloudy
7:34 AM 62.6 °F - 60.8 °F 94% 30.11 in 2.5 mi ESE 3.5 mph - N/A   Scattered Clouds
7:52 AM 64.9 °F - 62.1 °F 90% 30.09 in 3.0 mi East 4.6 mph - N/A   Clear
8:52 AM 69.1 °F - 64.0 °F 84% 30.10 in 6.0 mi ESE 3.5 mph - N/A   Haze
9:52 AM 75.9 °F - 66.0 °F 71% 30.10 in 9.0 mi South 6.9 mph - N/A   Scattered Clouds
10:52 AM 81.0 °F 82.7 °F 64.9 °F 58% 30.10 in 10.0 mi South 9.2 mph - N/A   Clear
11:52 AM 82.0 °F 83.4 °F 64.0 °F 54% 30.09 in 10.0 mi SSE 12.7 mph - N/A   Clear
12:52 PM 84.0 °F 85.8 °F 64.9 °F 53% 30.08 in 10.0 mi SSE 11.5 mph - N/A   Clear
1:52 PM 86.0 °F 87.3 °F 64.0 °F 48% 30.06 in 10.0 mi South 9.2 mph 18.4 mph N/A   Clear
2:52 PM 86.0 °F 86.8 °F 63.0 °F 46% 30.04 in 10.0 mi South 10.4 mph - N/A   Clear
3:52 PM 87.1 °F 88.9 °F 64.9 °F 48% 30.02 in 10.0 mi SSW 9.2 mph - N/A   Clear
4:52 PM 86.0 °F 87.6 °F 64.9 °F 49% 30.01 in 10.0 mi SSW 10.4 mph - N/A   Partly Cloudy
5:52 PM 84.9 °F 86.1 °F 64.0 °F 49% 30.00 in 10.0 mi South 6.9 mph - N/A   Clear
6:52 PM 82.9 °F 84.6 °F 64.9 °F 54% 29.99 in 10.0 mi South 6.9 mph - N/A   Clear
7:52 PM 78.1 °F - 66.0 °F 66% 29.99 in 10.0 mi SSE 3.5 mph - N/A   Clear
8:52 PM 73.0 °F - 66.9 °F 81% 29.99 in 10.0 mi SE 4.6 mph - N/A   Clear
9:52 PM 71.1 °F - 66.0 °F 84% 30.01 in 9.0 mi SE 4.6 mph - N/A   Clear
10:52 PM 70.0 °F - 64.9 °F 84% 30.01 in 8.0 mi SE 5.8 mph - N/A   Clear
11:52 PM 70.0 °F - 64.9 °F 84% 30.01 in 8.0 mi SE 5.8 mph - N/A   Clear